FW9889 Weather Reports


time (UTC)temp
C
wind
direction
speed
KPH
gust
KPH
rain 1hr
cm
rain 24hr
cm
rain mn
cm
humidity
%
barometer
mb
20260510190533 22 360 1.6 8.0 0.00 0.30 0.03 60 1013.4
20260510190056 23 0 1.6 8.0 0.00 0.30 0.03 62 1013.4
20260510185530 23 227 1.6 8.0 0.00 0.33 0.03 60 1013.4
20260510185032 22 49 3.2 8.0 0.00 0.33 0.03 60 1013.5
20260510184550 22 10 0.0 11.3 0.00 0.33 0.03 60 1013.4
20260510184030 23 36 0.0 12.9 0.00 0.33 0.03 59 1013.4
20260510183530 23 308 3.2 12.9 0.00 0.33 0.03 58 1013.4
20260510183053 23 239 1.6 14.5 0.00 0.33 0.03 59 1013.6
20260510182529 23 352 1.6 14.5 0.00 0.33 0.03 60 1013.4
20260510182029 23 17 3.2 14.5 0.00 0.33 0.03 55 1013.5
20260510181546 23 355 1.6 9.7 0.00 0.33 0.03 58 1013.5
20260510181033 23 352 3.2 9.7 0.00 0.33 0.03 62 1013.3
20260510180537 23 12 3.2 8.0 0.00 0.33 0.03 63 1013.5
20260510180051 22 173 1.6 8.0 0.00 0.33 0.03 62 1013.4
20260510175530 22 190 3.2 8.0 0.00 0.33 0.03 60 1013.4
20260510175033 22 281 1.6 12.9 0.00 0.33 0.03 61 1013.4
20260510174540 23 105 3.2 12.9 0.00 0.33 0.03 59 1013.4
20260510174032 22 294 1.6 8.0 0.00 0.33 0.03 63 1013.4
20260510173534 22 338 3.2 8.0 0.00 0.33 0.03 60 1013.4
20260510173049 22 200 3.2 8.0 0.00 0.33 0.03 61 1013.4
20260510172530 22 286 0.0 9.7 0.00 0.33 0.03 60 1013.3
20260510172032 22 167 1.6 9.7 0.00 0.33 0.03 61 1013.3
20260510171547 23 321 1.6 11.3 0.00 0.33 0.03 60 1013.2
20260510171034 23 198 4.8 11.3 0.00 0.33 0.03 59 1013.2
20260510170535 23 80 1.6 8.0 0.00 0.33 0.03 60 1013.1
20260510170058 23 141 0.0 6.4 0.00 0.33 0.03 60 1013.1
20260510165532 23 219 1.6 8.0 0.00 0.33 0.03 65 1013.2
20260510165033 22 0 3.2 9.7 0.00 0.33 0.03 62 1013.0
20260510164542 22 346 0.0 9.7 0.00 0.33 0.03 62 1013.1
20260510164031 22 177 1.6 9.7 0.00 0.33 0.03 62 1013.3
20260510163530 22 34 1.6 9.7 0.00 0.33 0.03 62 1013.3
20260510163043 22 249 1.6 9.7 0.00 0.33 0.03 66 1013.2
20260510162530 22 257 1.6 4.8 0.00 0.33 0.03 69 1013.2
20260510162031 21 46 1.6 6.4 0.00 0.33 0.03 65 1013.3
20260510161545 21 172 1.6 6.4 0.00 0.33 0.03 67 1013.2
20260510161030 21 224 1.6 6.4 0.00 0.33 0.03 72 1013.2
20260510160533 21 189 1.6 6.4 0.00 0.33 0.03 73 1013.2
20260510160057 20 208 1.6 6.4 0.00 0.33 0.03 75 1013.3
20260510155531 20 0 1.6 6.4 0.00 0.33 0.03 75 1013.3
20260510155030 20 88 1.6 6.4 0.00 0.33 0.03 77 1013.3
20260510154555 20 50 0.0 8.0 0.00 0.33 0.03 81 1013.4
20260510154031 19 352 1.6 8.0 0.00 0.33 0.03 76 1013.5
20260510153533 19 0 1.6 6.4 0.00 0.33 0.03 79 1013.7
20260510153045 19 0 0.0 4.8 0.00 0.33 0.03 84 1013.7
20260510152533 18 90 1.6 4.8 0.00 0.33 0.03 80 1013.6
20260510152035 18 117 1.6 4.8 0.00 0.33 0.03 82 1013.6
20260510151541 17 0 1.6 4.8 0.00 0.33 0.03 82 1013.5
20260510151033 17 300 0.0 3.2 0.00 0.33 0.03 85 1013.6
20260510150534 17 0 0.0 4.8 0.00 0.33 0.03 84 1013.7
20260510150044 16 0 0.0 6.4 0.00 0.33 0.03 85 1013.8
20260510145531 16 66 1.6 6.4 0.00 0.33 0.03 85 1013.7
20260510145029 16 283 1.6 4.8 0.00 0.33 0.03 86 1013.6
20260510144548 16 181 0.0 4.8 0.00 0.33 0.03 88 1013.6
20260510144030 16 329 0.0 3.2 0.00 0.33 0.03 89 1013.6
20260510143529 16 254 0.0 4.8 0.00 0.33 0.03 90 1013.6
20260510143046 15 0 0.0 4.8 0.00 0.33 0.03 91 1013.6
20260510142531 15 163 0.0 4.8 0.00 0.33 0.03 91 1013.7
20260510142033 15 329 0.0 3.2 0.00 0.33 0.03 92 1013.7
20260510141548 15 0 0.0 3.2 0.00 0.33 0.03 93 1013.7
20260510141030 14 107 0.0 3.2 0.00 0.33 0.03 94 1013.7
20260510140530 13 0 1.6 3.2 0.00 0.33 0.03 94 1013.6
20260510140047 13 175 1.6 3.2 0.00 0.33 0.03 94 1013.6
20260510135532 13 168 0.0 3.2 0.00 0.33 0.03 94 1013.5
20260510135031 13 0 0.0 4.8 0.00 0.33 0.03 95 1013.5
20260510134550 12 0 0.0 4.8 0.00 0.33 0.03 95 1013.5
20260510134029 12 0 0.0 3.2 0.00 0.33 0.03 95 1013.5
20260510133531 12 0 0.0 3.2 0.00 0.33 0.03 95 1013.6
20260510133045 12 0 0.0 3.2 0.00 0.33 0.03 95 1013.5
20260510132534 12 0 0.0 3.2 0.00 0.33 0.03 95 1013.5
20260510132033 12 112 0.0 3.2 0.00 0.33 0.03 95 1013.5
20260510131546 12 0 1.6 3.2 0.00 0.33 0.03 95 1013.6
20260510131029 12 0 0.0 3.2 0.00 0.33 0.03 96 1013.7
20260510130529 12 0 0.0 3.2 0.00 0.33 0.03 95 1013.7
20260510130041 12 355 0.0 3.2 0.00 0.33 0.03 95 1013.8
20260510125530 12 0 0.0 3.2 0.00 0.33 0.03 95 1013.8
20260510125030 12 71 0.0 3.2 0.00 0.33 0.03 95 1013.8
20260510124556 11 0 0.0 1.6 0.00 0.33 0.03 95 1013.7
20260510124030 11 0 0.0 3.2 0.00 0.33 0.03 95 1013.5
20260510123530 11 0 0.0 3.2 0.00 0.33 0.03 95 1013.4
20260510123047 11 0 0.0 3.2 0.00 0.33 0.03 95 1013.3
20260510122529 11 285 0.0 3.2 0.00 0.33 0.03 95 1013.3
20260510122029 11 0 0.0 1.6 0.00 0.33 0.03 96 1013.1
20260510121544 11 61 0.0 1.6 0.00 0.33 0.03 95 1012.9
20260510121030 11 0 0.0 3.2 0.00 0.33 0.03 95 1013.0
20260510120533 11 61 0.0 3.2 0.00 0.33 0.03 95 1012.8
20260510120044 11 0 0.0 3.2 0.00 0.33 0.03 95 1012.9
20260510115529 11 0 0.0 1.6 0.00 0.33 0.03 95 1012.8
20260510115033 11 0 0.0 3.2 0.00 0.33 0.03 95 1012.8
20260510114541 11 0 0.0 3.2 0.00 0.33 0.03 95 1012.8
20260510114030 11 53 0.0 1.6 0.00 0.33 0.03 95 1012.7
20260510113530 10 0 0.0 1.6 0.00 0.33 0.03 95 1012.7
20260510113046 10 0 0.0 1.6 0.00 0.33 0.03 95 1012.7
20260510112534 10 355 0.0 3.2 0.00 0.33 0.03 95 1012.7
20260510112033 10 0 0.0 3.2 0.00 0.33 0.03 95 1012.7
20260510111545 10 5 0.0 1.6 0.00 0.33 0.03 95 1012.8
20260510111029 10 0 0.0 1.6 0.00 0.33 0.03 95 1012.7
20260510110533 10 0 0.0 1.6 0.00 0.33 0.03 95 1012.7
20260510110047 10 0 0.0 1.6 0.00 0.33 0.03 95 1012.7
20260510105530 10 5 0.0 3.2 0.00 0.33 0.03 95 1012.6
20260510105035 10 0 0.0 3.2 0.00 0.33 0.03 95 1012.7
20260510104543 10 352 0.0 3.2 0.00 0.33 0.03 95 1012.4
20260510104033 10 0 0.0 3.2 0.00 0.33 0.03 95 1012.3
20260510103533 10 355 0.0 3.2 0.00 0.33 0.03 95 1012.3
20260510103044 10 21 0.0 3.2 0.00 0.33 0.03 95 1012.3
20260510102529 10 0 0.0 1.6 0.00 0.33 0.03 95 1012.3
20260510102029 10 0 0.0 1.6 0.00 0.33 0.03 95 1012.2
20260510101542 10 0 0.0 1.6 0.00 0.33 0.03 95 1012.2
20260510101029 9 0 0.0 1.6 0.00 0.33 0.03 95 1012.2
20260510100536 9 0 0.0 1.6 0.00 0.33 0.03 95 1012.2
20260510100045 9 0 0.0 1.6 0.00 0.33 0.03 95 1012.2
20260510095535 9 0 0.0 1.6 0.00 0.33 0.03 95 1012.2
20260510095032 9 0 0.0 1.6 0.00 0.33 0.03 94 1012.3
20260510094557 9 0 0.0 0.0 0.00 0.33 0.03 94 1012.0
20260510094033 9 0 0.0 0.0 0.00 0.33 0.03 94 1012.1
20260510093530 9 0 0.0 1.6 0.00 0.33 0.03 94 1012.0
20260510093056 9 0 0.0 1.6 0.00 0.33 0.03 94 1011.9
20260510092530 9 0 0.0 1.6 0.00 0.33 0.03 94 1012.0
20260510092029 9 0 0.0 1.6 0.03 0.33 0.03 94 1012.2
20260510091548 9 0 0.0 0.0 0.03 0.33 0.03 94 1012.3
20260510091029 9 0 0.0 1.6 0.03 0.33 0.03 94 1012.2
20260510090530 9 0 0.0 1.6 0.03 0.33 0.03 94 1012.1
20260510090042 9 0 0.0 1.6 0.03 0.33 0.03 94 1012.0
20260510085529 9 0 0.0 1.6 0.03 0.33 0.03 94 1012.1
20260510085029 9 360 0.0 3.2 0.03 0.33 0.03 94 1012.2
20260510084544 9 0 0.0 3.2 0.03 0.33 0.03 94 1012.1
20260510084037 9 360 0.0 3.2 0.03 0.33 0.03 94 1012.2
20260510083533 9 305 0.0 4.8 0.03 0.33 0.03 94 1012.3
20260510083046 9 72 0.0 8.0 0.03 0.33 0.03 94 1012.1
20260510082530 9 329 1.6 8.0 0.03 0.33 0.03 94 1012.3
20260510082034 9 173 3.2 12.9 0.00 0.30 0.00 94 1012.1
20260510081543 9 328 1.6 12.9 0.00 0.30 0.00 94 1012.0
20260510081030 9 18 1.6 4.8 0.00 0.30 0.00 94 1012.2
20260510080530 9 0 0.0 1.6 0.00 0.30 0.00 94 1011.7
20260510080044 9 0 0.0 1.6 0.00 0.30 0.00 94 1011.5
20260510075550 9 0 0.0 1.6 0.00 0.30 0.00 94 1011.6
20260510075036 9 0 0.0 1.6 0.00 0.30 0.00 94 1011.5
20260510074544 9 0 0.0 0.0 0.00 0.30 0.00 94 1011.5
20260510074032 9 0 0.0 0.0 0.00 0.30 0.00 94 1011.4
20260510073530 9 0 0.0 0.0 0.00 0.30 0.00 94 1011.4
20260510073047 9 0 0.0 0.0 0.00 0.30 0.00 94 1011.5
20260510072533 9 0 0.0 1.6 0.00 0.30 0.00 94 1011.5
20260510072030 9 0 0.0 1.6 0.00 0.30 0.00 94 1011.4
20260510071550 9 0 0.0 1.6 0.00 0.30 0.00 94 1011.5
20260510071030 9 0 0.0 1.6 0.00 0.30 0.00 94 1011.3
20260510070533 9 0 0.0 0.0 0.00 0.30 0.00 93 1011.3
20260510070047 9 0 0.0 3.2 0.00 0.30 0.00 93 1011.4
20260510065530 9 0 0.0 3.2 0.00 0.30 0.00 93 1011.5
20260510065030 9 0 0.0 3.2 0.00 0.30 0.00 93 1011.4
20260510064544 9 0 0.0 3.2 0.00 0.30 0.00 93 1011.5
20260510064029 9 5 0.0 3.2 0.00 0.30 0.00 93 1011.3
20260510063530 9 0 0.0 3.2 0.00 0.30 0.00 93 1011.4
20260510063044 9 0 0.0 3.2 0.00 0.30 0.00 93 1011.3
20260510062530 9 0 0.0 1.6 0.00 0.30 0.00 93 1011.2
20260510062030 9 0 0.0 0.0 0.00 0.30 0.00 93 1011.2
20260510061543 9 0 0.0 0.0 0.00 0.30 0.00 93 1011.1
20260510061030 9 0 0.0 0.0 0.00 0.30 0.00 93 1011.1
20260510060530 9 0 0.0 0.0 0.00 0.30 0.00 93 1011.2
20260510060042 9 0 0.0 0.0 0.00 0.30 0.00 93 1011.2
20260510055530 9 0 0.0 0.0 0.00 0.30 0.00 93 1011.2
20260510055030 9 0 0.0 0.0 0.00 0.30 0.00 93 1011.2
20260510054543 9 0 0.0 0.0 0.00 0.30 0.00 93 1011.2
20260510054031 9 0 0.0 0.0 0.00 0.30 0.00 93 1011.3
20260510053533 9 0 0.0 0.0 0.00 0.30 0.00 93 1011.2
20260510053058 9 0 0.0 0.0 0.00 0.30 0.00 93 1011.3
20260510052531 9 0 0.0 0.0 0.00 0.30 0.00 92 1011.3
20260510052031 9 0 0.0 0.0 0.00 0.30 0.00 92 1011.4
20260510051549 9 0 0.0 0.0 0.00 0.30 0.00 92 1011.5
20260510051031 9 0 0.0 0.0 0.00 0.30 0.00 92 1011.4
20260510050530 9 0 0.0 0.0 0.00 0.30 0.00 92 1011.5
20260510050046 9 0 0.0 0.0 0.00 0.30 0.00 92 1011.5
20260510045532 8 0 0.0 0.0 0.00 0.30 0.00 92 1011.6
20260510045057 8 0 0.0 0.0 0.00 0.30 0.00 92 1011.6
20260510044548 8 0 0.0 0.0 0.00 0.30 0.00 92 1011.5
20260510044031 8 0 0.0 0.0 0.00 0.30 0.00 92 1011.5
20260510043531 8 0 0.0 0.0 0.00 0.30 0.00 92 1011.6
20260510043053 8 0 0.0 0.0 0.00 0.30 0.00 92 1011.7
20260510042532 8 0 0.0 0.0 0.00 0.30 0.00 92 1011.6
20260510042031 8 0 0.0 0.0 0.00 0.30 0.00 92 1011.6
20260510041542 8 0 0.0 0.0 0.00 0.30 0.00 91 1011.6
20260510041031 8 0 0.0 0.0 0.00 0.30 0.00 91 1011.7
20260510040531 8 0 0.0 0.0 0.00 0.30 0.00 91 1011.6
20260510040049 8 0 0.0 0.0 0.00 0.30 0.00 91 1011.6
20260510035531 8 0 0.0 0.0 0.00 0.30 0.30 91 1011.7
20260510035031 8 0 0.0 0.0 0.00 0.30 0.30 91 1011.6
20260510034547 8 0 0.0 0.0 0.00 0.30 0.30 91 1011.6
20260510034031 8 0 0.0 0.0 0.00 0.30 0.30 91 1011.6
20260510033532 8 0 0.0 0.0 0.00 0.30 0.30 91 1011.5
20260510033043 8 0 0.0 0.0 0.00 0.30 0.30 91 1011.5
20260510032531 8 0 0.0 0.0 0.00 0.30 0.30 90 1011.4
20260510032033 9 0 0.0 0.0 0.00 0.30 0.30 90 1011.5
20260510031547 9 0 0.0 0.0 0.00 0.30 0.30 90 1011.4
20260510031031 9 0 0.0 0.0 0.00 0.30 0.30 90 1011.5
20260510030531 9 0 0.0 0.0 0.00 0.30 0.30 90 1011.4
20260510030041 9 0 0.0 0.0 0.00 0.30 0.30 90 1011.4
20260510025533 9 0 0.0 0.0 0.00 0.30 0.30 90 1011.4
20260510025034 9 0 0.0 0.0 0.00 0.30 0.30 90 1011.4
20260510024548 9 0 0.0 0.0 0.00 0.30 0.30 90 1011.3
20260510024031 9 0 0.0 0.0 0.00 0.30 0.30 90 1011.2
20260510023533 9 0 0.0 0.0 0.00 0.30 0.30 90 1011.2
20260510023046 9 0 0.0 0.0 0.00 0.30 0.30 90 1011.2
20260510022533 10 0 0.0 0.0 0.00 0.30 0.30 89 1011.2
20260510022032 10 0 0.0 0.0 0.00 0.30 0.30 89 1011.3
20260510021549 10 0 0.0 0.0 0.00 0.30 0.30 89 1011.3
20260510021029 10 0 0.0 0.0 0.00 0.30 0.30 89 1011.3
20260510020534 10 0 0.0 1.6 0.00 0.30 0.30 89 1011.4
20260510020044 10 0 0.0 1.6 0.00 0.30 0.30 89 1011.4
20260510015530 10 0 0.0 1.6 0.00 0.30 0.30 89 1011.3
20260510015029 10 0 0.0 0.0 0.00 0.30 0.30 89 1011.3
20260510014546 10 0 0.0 1.6 0.00 0.30 0.30 89 1011.2
20260510014030 10 0 0.0 1.6 0.00 0.30 0.30 89 1011.4
20260510013534 10 0 0.0 0.0 0.00 0.30 0.30 88 1011.3
20260510013049 10 0 0.0 0.0 0.00 0.30 0.30 88 1011.2
20260510012532 10 0 0.0 0.0 0.00 0.30 0.30 87 1011.1
20260510012029 10 0 0.0 0.0 0.00 0.30 0.30 87 1011.3
20260510011549 10 0 0.0 0.0 0.00 0.30 0.30 87 1011.1
20260510011033 10 0 0.0 0.0 0.00 0.30 0.30 88 1011.0
20260510010530 11 0 0.0 0.0 0.00 0.30 0.30 88 1011.0
20260510010043 11 0 0.0 0.0 0.00 0.30 0.30 88 1010.9
20260510005533 11 0 0.0 0.0 0.00 0.30 0.30 88 1010.9
20260510005033 11 0 0.0 0.0 0.00 0.30 0.30 87 1010.9
20260510004541 11 0 0.0 0.0 0.00 0.30 0.30 87 1010.8
20260510004032 11 0 0.0 0.0 0.00 0.30 0.30 87 1010.7
20260510003530 11 0 0.0 0.0 0.00 0.30 0.30 87 1010.6
20260510003046 11 0 0.0 0.0 0.00 0.30 0.30 87 1010.5
20260510002531 11 0 0.0 0.0 0.00 0.30 0.30 87 1010.5
20260510002029 12 0 0.0 0.0 0.00 0.30 0.30 87 1010.6
20260510001545 12 0 0.0 0.0 0.00 0.30 0.30 87 1010.6
20260510001031 12 0 0.0 0.0 0.00 0.30 0.30 87 1010.5
20260510000529 12 0 0.0 0.0 0.00 0.30 0.30 87 1010.5
20260510000051 12 0 0.0 1.6 0.00 0.30 0.30 88 1010.6
20260509235534 12 0 0.0 1.6 0.00 0.30 0.30 88 1010.5
20260509235032 12 0 0.0 1.6 0.00 0.30 0.30 87 1010.5
20260509234545 12 0 0.0 0.0 0.00 0.30 0.30 87 1010.6
20260509234032 13 0 0.0 0.0 0.00 0.30 0.30 87 1010.6
20260509233530 13 0 0.0 0.0 0.00 0.30 0.30 87 1010.4
20260509233045 13 0 0.0 0.0 0.00 0.30 0.30 88 1010.6
20260509232531 13 0 0.0 0.0 0.00 0.30 0.30 88 1010.5
20260509232031 13 0 0.0 0.0 0.00 0.30 0.30 88 1010.5
20260509231545 13 0 0.0 0.0 0.00 0.30 0.30 89 1010.4
20260509231032 13 0 0.0 0.0 0.00 0.30 0.30 89 1010.4
20260509230530 13 0 0.0 0.0 0.00 0.30 0.30 89 1010.4
20260509230050 13 0 0.0 0.0 0.00 0.30 0.30 89 1010.5
20260509225533 13 0 0.0 4.8 0.00 0.30 0.30 89 1010.4
20260509225032 13 0 0.0 4.8 0.00 0.30 0.30 90 1010.5
20260509224545 13 0 0.0 4.8 0.00 0.30 0.30 90 1010.5
20260509224033 13 0 0.0 1.6 0.00 0.30 0.30 90 1010.5
20260509223534 13 0 0.0 3.2 0.00 0.30 0.30 90 1010.6
20260509223044 13 70 0.0 3.2 0.00 0.30 0.30 90 1010.5
20260509222529 13 0 0.0 6.4 0.00 0.30 0.30 89 1010.5
20260509222029 13 0 0.0 6.4 0.00 0.30 0.30 89 1010.5
20260509221543 13 0 0.0 4.8 0.00 0.30 0.30 89 1010.5
20260509221033 13 65 1.6 4.8 0.00 0.30 0.30 90 1010.4
20260509220534 13 0 0.0 1.6 0.00 0.30 0.30 90 1010.6
20260509220044 13 0 0.0 1.6 0.00 0.30 0.30 90 1010.6
20260509215533 13 0 0.0 1.6 0.00 0.30 0.30 90 1010.6
20260509215033 13 125 0.0 1.6 0.00 0.30 0.30 90 1010.7
20260509214557 13 0 0.0 3.2 0.03 0.30 0.30 90 1010.8
20260509214030 13 0 0.0 4.8 0.18 0.30 0.30 90 1010.7
20260509213532 13 84 0.0 4.8 0.18 0.30 0.30 90 1010.7
20260509213048 13 0 0.0 3.2 0.18 0.30 0.30 90 1010.9
20260509212532 13 124 0.0 3.2 0.20 0.30 0.30 90 1010.9
20260509212029 13 0 0.0 3.2 0.20 0.30 0.30 89 1010.9
20260509211543 13 72 0.0 3.2 0.23 0.30 0.30 89 1010.8
20260509211033 13 0 0.0 3.2 0.23 0.30 0.30 89 1010.6
20260509210531 13 0 0.0 1.6 0.23 0.30 0.30 88 1010.7
20260509210045 13 0 0.0 0.0 0.25 0.30 0.30 88 1010.7
20260509205533 12 0 0.0 1.6 0.25 0.30 0.30 88 1010.6
20260509205032 13 0 0.0 1.6 0.25 0.30 0.30 87 1010.8
20260509204546 13 0 0.0 1.6 0.20 0.25 0.25 87 1010.6
20260509204033 13 0 0.0 1.6 0.08 0.13 0.13 87 1010.8
20260509203531 13 0 0.0 4.8 0.08 0.13 0.13 87 1010.5
20260509203057 13 0 0.0 4.8 0.08 0.13 0.13 87 1010.4
20260509202533 13 0 0.0 6.4 0.05 0.10 0.10 87 1010.4
20260509202033 13 0 0.0 6.4 0.05 0.10 0.10 87 1010.7
20260509201545 13 5 1.6 6.4 0.03 0.08 0.08 86 1010.7
20260509201033 13 0 0.0 3.2 0.05 0.08 0.08 87 1010.8
20260509200529 13 0 0.0 4.8 0.03 0.05 0.05 87 1010.8
20260509200044 13 0 0.0 4.8 0.03 0.05 0.05 87 1010.9
20260509195533 13 0 0.0 4.8 0.03 0.05 0.05 87 1010.8
20260509195029 13 5 1.6 4.8 0.03 0.05 0.05 87 1010.8
20260509194548 13 0 0.0 4.8 0.03 0.05 0.05 87 1011.2
20260509194033 13 0 0.0 4.8 0.03 0.05 0.05 88 1011.1
20260509193532 13 0 0.0 4.8 0.03 0.05 0.05 87 1011.1
20260509193046 13 0 0.0 4.8 0.05 0.05 0.05 86 1011.4
20260509192532 13 241 0.0 4.8 0.05 0.05 0.05 86 1011.5
20260509192033 13 0 0.0 4.8 0.05 0.05 0.05 85 1011.5
20260509191559 13 291 1.6 4.8 0.05 0.05 0.05 85 1011.6
20260509191032 13 267 0.0 6.4 0.03 0.03 0.03 84 1011.6